Volver al catálogo

NIMBUS 2 DEB

ActivoLEO
NORAD 26962·DEBRIS·🇺🇸 United States

Lanzado May 15, 1966 desde Vandenberg Space Force Base

Loading…

Próximos Pases (próximas 24 horas)

TLE

ActualizadoSource: Space-Track

Época: Sep 13, 2026, 08:09 UTC

1 26962U 66040M   26256.33993361  .00002431  00000-0  35360-2 0  9998
2 26962 100.2990 171.4282 0061181 317.5298 167.8148 13.55369175239571

Sigue NIMBUS 2 DEB en tiempo real con AllMySat

Download on the App Store